Wind_Speed
11 8 7 13 17 20 26 29 34 38 42 43 44 44 45 45 45 46 47 44 44 41 39 36 33 31 30 30 30 30 30 21 18 16 18 13 10 9 8 6 9 5 8 6
9 8 8 16 18 21 28 30 33 36 40 40 39 40 41 42 43 45 46 45 45 43 39 38 34 32 33 33 33 36 32 23 19 17 15 14 11 8 8 9 7 1 8 4
9 8 10 16 21 27 32 32 33 36 37 37 39 38 39 41 41 42 44 45 43 42 41 39 37 36 35 34 34 33 31 23 19 10 11 13 9 6 4 8 4 7 6 3
9 9 14 16 21 27 34 35 34 35 37 37 38 38 38 40 41 41 42 42 42 45 42 38 36 38 37 37 37 38 35 30 27 21 24 18 11 9 7 5 9 7 11 3
9 11 13 19 22 27 37 38 37 36 37 36 37 37 37 39 40 40 41 40 40 44 44 44 42 41 39 37 37 39 38 30 29 25 24 20 16 15 12 10 9 8 9 11
13 13 16 18 24 28 37 43 42 40 39 41 40 40 39 39 39 39 40 39 38 42 44 42 37 40 41 43 39 37 35 34 31 28 25 25 23 21 20 15 13 13 13 14
18 15 19 21 23 29 32 40 44 46 46 44 45 42 42 40 41 41 41 40 39 38 41 40 38 39 38 37 37 37 34 32 28 22 29 29 23 23 19 18 14 15 15 16
21 18 19 22 25 27 32 38 42 45 48 50 49 47 46 44 43 43 43 43 40 38 36 35 36 40 42 40 36 36 33 31 34 31 29 27 30 23 19 17 13 14 15 14
23 22 21 23 25 28 31 35 42 44 47 51 53 53 50 49 48 46 47 45 44 42 40 39 37 37 40 43 39 35 32 33 31 33 25 30 20 24 19 18 17 15 15 15
25 24 24 23 25 28 31 35 38 44 48 50 52 56 57 53 52 51 48 48 48 48 45 43 38 33 38 42 41 37 36 33 33 30 25 23 30 18 18 17 15 16 16 15
24 25 26 27 28 29 32 33 37 39 45 51 53 55 57 58 58 56 53 52 52 50 50 48 46 43 38 38 39 39 37 36 36 28 27 26 20 17 14 16 15 15 14 15
22 23 27 28 29 31 33 34 36 38 40 44 53 55 56 57 60 59 59 57 56 56 54 54 52 46 43 38 41 43 39 37 33 35 29 30 19 21 16 13 14 15 17 19
24 22 23 25 27 29 32 33 36 38 39 42 46 55 60 58 59 61 61 62 59 60 58 54 53 51 46 44 39 43 46 42 43 34 36 31 23 24 17 15 15 15 16 17
27 24 24 26 26 27 29 32 34 36 37 40 44 48 56 61 60 60 61 63 62 62 60 59 56 52 48 49 48 46 48 45 43 39 37 31 25 26 21 20 19 18 17 18
29 27 26 27 27 27 28 31 33 34 35 38 41 45 49 55 63 60 61 62 63 64 63 61 60 57 52 50 49 47 46 48 45 41 34 29 27 27 25 24 23 20 20 22
28 27 27 27 28 29 29 29 31 32 34 36 39 41 45 48 55 64 63 63 62 64 65 64 62 59 59 55 52 49 46 42 38 37 30 31 28 28 29 29 28 28 28 28
28 28 27 28 28 29 29 30 30 32 33 35 37 38 41 44 48 55 62 65 62 62 64 65 64 63 62 60 55 51 49 46 41 38 36 35 35 35 36 36 36 34 33 34
25 27 27 28 28 27 27 27 28 30 32 33 36 38 38 39 43 48 52 61 66 63 63 63 64 65 64 61 55 55 51 50 48 45 43 41 38 38 39 39 37 34 33 34
21 23 24 25 25 24 24 25 27 28 30 31 34 37 39 37 37 41 44 48 59 63 64 63 63 63 67 59 56 53 51 49 48 48 48 45 43 43 39 38 36 35 35 37
18 20 21 21 22 22 23 24 25 26 29 29 30 36 39 37 37 38 36 39 44 51 61 61 64 63 60 58 56 51 49 46 45 46 45 42 39 37 37 36 36 36 38 40
14 15 17 17 19 20 22 22 22 24 26 26 29 36 39 39 34 32 35 31 38 42 48 61 63 62 55 51 49 49 48 43 40 36 33 34 35 37 38 37 38 40 41 43
11 12 13 14 16 17 18 19 20 19 20 23 31 37 40 39 41 34 37 33 34 38 45 48 57 60 53 49 46 45 43 40 40 40 42 44 41 38 38 39 41 43 44 44
9 9 8 8 10 11 10 10 11 13 16 24 31 36 39 39 44 35 35 42 38 35 38 41 47 56 51 48 46 44 40 39 38 38 38 39 39 40 42 42 43 43 43 37
10 9 7 6 5 7 10 13 16 18 20 23 26 31 35 41 45 34 35 41 39 40 40 42 46 51 52 50 47 42 39 37 38 36 36 37 39 40 41 43 40 38 36 32
9 8 7 5 2 6 8 12 17 19 19 22 21 26 30 41 44 26 35 33 46 49 45 43 44 44 52 51 46 42 38 37 37 36 34 34 34 35 36 34 34 33 31 28
11 7 3 4 4 6 6 15 13 21 19 19 24 14 32 48 42 39 30 29 33 44 48 43 43 41 48 48 44 40 38 36 33 36 35 30 28 27 28 27 25 25 25 25
8 8 9 18 17 13 15 23 19 18 20 27 28 32 13 22 29 32 25 31 34 35 38 40 36 45 45 45 44 41 40 38 37 32 28 27 29 27 25 24 24 24 27 27
Wind_Direction
315 259 235 190 186 189 170 169 175 177 176 179 181 183 186 188 190 190 194 199 200 200 199 198 196 193 192 190 190 184 190 180 195 185 189 200 203 184 195 134 312 107 134 238
303 243 211 187 182 179 175 171 177 179 178 179 179 184 187 190 188 190 193 197 199 200 198 196 194 194 196 192 189 187 195 184 180 194 205 196 188 213 188 206 190 215 112 235
295 254 208 192 189 184 177 176 180 182 181 181 180 185 188 189 189 191 193 197 198 197 198 196 193 193 196 195 189 187 195 194 180 199 192 209 173 208 187 172 273 243 151 214
277 246 214 200 191 197 182 182 184 186 183 184 186 190 189 190 192 192 195 197 197 196 197 195 195 198 198 197 196 188 194 198 202 190 210 204 202 218 230 217 204 187 238 215
270 242 221 208 199 207 189 184 188 189 189 189 192 194 194 194 195 195 197 198 196 196 196 194 196 198 200 202 199 195 197 196 204 205 212 213 214 227 247 251 249 244 239 274
276 241 225 212 207 206 202 192 191 192 194 196 198 199 198 198 199 198 200 200 197 198 198 202 199 203 203 205 202 201 199 200 201 206 217 223 228 233 245 258 264 270 276 256
271 249 229 217 212 210 207 208 202 197 194 199 203 202 202 202 203 203 201 202 201 200 202 202 200 206 211 211 210 210 204 205 205 205 222 223 226 239 246 256 263 264 267 265
269 256 232 222 216 214 211 209 212 208 202 200 202 204 205 206 206 206 206 203 203 202 202 203 204 208 212 217 212 212 208 206 212 211 221 226 233 244 253 255 257 270 263 262
266 259 245 228 225 219 216 213 213 213 212 208 203 203 205 207 208 208 209 206 205 204 203 203 204 206 209 215 218 213 210 209 217 219 218 230 239 237 245 253 258 261 252 257
264 256 246 238 229 226 220 217 214 214 215 214 211 208 205 206 208 212 211 209 207 209 208 206 206 212 210 214 218 215 209 207 212 218 213 227 236 240 246 249 250 250 250 255
259 254 247 243 237 229 224 220 218 216 215 215 215 213 211 208 207 209 212 210 211 210 211 212 210 211 211 213 216 215 214 209 213 213 216 225 238 236 241 239 245 247 251 256
262 255 247 241 233 229 225 223 221 219 218 216 216 216 215 214 212 210 210 213 213 213 213 213 215 208 212 210 216 212 212 213 224 225 235 234 234 250 244 244 239 243 249 259
262 256 243 236 231 225 224 224 224 223 221 219 216 216 216 216 215 214 213 213 213 215 217 218 218 219 220 214 211 213 215 214 225 225 230 242 241 246 250 253 246 250 258 269
257 253 242 232 228 225 223 222 221 223 224 223 220 218 217 216 217 216 216 215 215 215 217 219 219 218 217 215 214 216 215 216 220 225 233 235 243 253 256 255 253 255 263 278
251 245 238 233 232 230 226 223 221 221 223 225 222 219 217 216 215 216 217 217 217 216 217 219 220 221 219 218 216 218 217 221 225 231 231 239 244 252 262 269 271 268 279 287
247 240 234 231 230 229 227 223 221 222 222 223 224 220 217 216 215 214 215 217 217 217 218 219 221 222 221 221 218 218 217 221 223 230 233 239 246 255 264 274 282 284 283 286
243 238 233 227 225 226 228 228 223 222 221 220 223 220 217 215 216 215 214 216 217 218 218 220 221 222 222 223 221 221 219 220 222 226 230 238 248 259 265 269 280 283 281 289
235 234 231 227 224 227 231 232 230 226 222 218 221 224 219 215 215 217 215 214 216 218 220 220 221 223 225 226 224 224 223 224 226 232 238 243 250 256 260 267 275 276 280 286
228 225 224 225 229 232 232 234 234 231 227 222 219 222 222 214 214 214 215 215 216 216 218 220 221 222 224 226 227 228 229 230 234 238 244 250 255 259 263 264 270 276 281 284
214 211 215 221 226 231 238 242 238 234 232 226 217 219 221 214 211 211 205 208 211 215 216 219 220 223 225 225 227 229 231 231 233 238 241 245 251 256 258 261 267 273 277 281
197 202 207 215 226 234 238 237 237 236 233 225 211 213 216 210 205 203 202 203 206 210 214 218 220 221 221 221 223 225 228 230 229 228 230 235 237 243 253 260 265 271 275 279
174 190 206 211 215 217 219 220 223 222 215 204 203 206 211 205 198 196 198 197 198 207 210 212 217 218 215 215 214 219 221 222 224 229 234 240 246 249 252 257 262 267 272 278
141 152 170 190 207 213 210 197 178 184 190 193 198 200 203 199 193 187 195 197 194 198 205 206 210 212 208 210 208 215 217 217 220 226 233 236 240 244 250 255 260 266 274 282
120 128 138 150 169 166 180 193 198 190 185 188 193 198 200 192 186 188 193 198 194 198 199 204 208 206 203 207 208 209 213 218 222 224 231 238 243 247 251 255 261 269 270 273
90 95 98 105 97 217 180 171 177 179 181 184 183 191 193 185 174 188 200 200 205 206 205 204 198 199 201 204 206 210 213 219 226 230 234 242 246 248 254 259 260 262 263 263
90 74 5 340 250 223 191 172 169 182 180 172 189 163 188 177 176 189 196 214 208 207 207 196 196 198 201 202 207 213 218 223 230 237 236 235 240 245 251 250 248 252 262 264
37 48 84 94 115 107 115 117 146 174 181 164 153 172 208 209 205 194 204 210 211 194 192 191 201 203 200 199 204 211 220 224 233 239 229 234 242 239 236 243 251 257 265 269
Height
5727 5724 5723 5724 5728 5731 5736 5741 5749 5755 5762 5773 5782 5791 5799 5807 5816 5826 5834 5843 5849 5858 5865 5871 5878 5884 5890 5894 5899 5904 5909 5916 5919 5924 5925 5928 5930 5934 5936 5941 5940 5938 5939 5942
5726 5723 5723 5725 5728 5732 5737 5744 5750 5757 5763 5773 5782 5790 5798 5805 5813 5821 5829 5837 5844 5852 5862 5868 5875 5881 5885 5890 5895 5898 5905 5912 5918 5921 5925 5927 5929 5931 5934 5938 5939 5938 5942 5942
5724 5722 5722 5725 5728 5733 5739 5745 5750 5757 5764 5774 5780 5788 5795 5803 5811 5818 5825 5833 5840 5850 5857 5864 5871 5875 5881 5886 5892 5898 5903 5911 5916 5924 5927 5928 5927 5929 5931 5934 5940 5939 5940 5939
5721 5721 5721 5723 5727 5733 5737 5743 5750 5758 5764 5771 5778 5785 5792 5800 5807 5814 5821 5829 5837 5844 5853 5861 5868 5872 5877 5882 5886 5891 5898 5905 5910 5917 5917 5921 5925 5927 5929 5931 5935 5938 5939 5938
5718 5718 5719 5721 5725 5730 5735 5742 5748 5755 5762 5771 5777 5784 5790 5796 5803 5810 5817 5825 5832 5840 5847 5854 5860 5866 5873 5879 5883 5887 5894 5901 5906 5910 5913 5917 5920 5923 5925 5928 5930 5932 5933 5932
5714 5714 5715 5718 5722 5727 5731 5736 5743 5750 5758 5765 5772 5778 5785 5792 5800 5806 5814 5821 5828 5835 5843 5850 5859 5863 5866 5870 5879 5885 5891 5897 5902 5907 5910 5914 5917 5918 5921 5924 5926 5928 5929 5929
5707 5709 5710 5712 5716 5721 5725 5731 5737 5744 5751 5759 5765 5775 5781 5788 5794 5802 5809 5817 5823 5832 5839 5847 5855 5860 5865 5871 5877 5882 5888 5894 5900 5906 5906 5909 5913 5914 5917 5919 5921 5922 5922 5924
5699 5701 5704 5706 5710 5714 5718 5724 5730 5737 5744 5751 5759 5767 5775 5783 5790 5797 5803 5812 5820 5827 5835 5842 5849 5854 5860 5864 5871 5878 5884 5890 5893 5898 5902 5906 5907 5910 5914 5915 5917 5917 5918 5918
5689 5692 5694 5699 5702 5706 5711 5715 5721 5729 5737 5742 5752 5759 5768 5775 5783 5791 5797 5807 5815 5823 5830 5836 5842 5848 5854 5859 5865 5873 5879 5884 5890 5894 5900 5900 5905 5906 5909 5911 5911 5912 5913 5913
5680 5682 5685 5688 5693 5696 5701 5706 5711 5718 5726 5734 5742 5749 5758 5768 5776 5783 5792 5800 5808 5816 5824 5832 5839 5844 5848 5853 5859 5866 5873 5878 5883 5887 5894 5898 5897 5903 5905 5906 5909 5906 5908 5908
5671 5673 5675 5678 5682 5686 5691 5696 5701 5708 5715 5724 5732 5740 5749 5757 5765 5773 5784 5794 5800 5809 5817 5825 5832 5837 5843 5849 5856 5862 5868 5875 5879 5885 5889 5892 5895 5898 5900 5901 5901 5902 5903 5903
5661 5662 5664 5667 5671 5676 5680 5686 5691 5697 5705 5714 5720 5730 5739 5746 5756 5765 5772 5782 5790 5798 5806 5814 5820 5831 5836 5845 5849 5857 5865 5871 5875 5880 5885 5887 5892 5892 5894 5896 5897 5898 5899 5898
5651 5652 5655 5657 5661 5666 5671 5676 5681 5687 5694 5701 5708 5715 5726 5736 5745 5754 5763 5771 5781 5788 5798 5808 5815 5824 5832 5838 5846 5850 5856 5864 5867 5875 5878 5881 5885 5886 5889 5891 5892 5893 5894 5894
5640 5642 5645 5649 5652 5657 5662 5667 5672 5677 5683 5689 5698 5705 5713 5724 5733 5743 5751 5761 5770 5780 5788 5796 5805 5814 5823 5830 5835 5844 5848 5856 5861 5865 5870 5875 5878 5881 5883 5885 5886 5888 5888 5888
5627 5631 5635 5639 5642 5647 5653 5658 5663 5668 5674 5679 5687 5693 5701 5711 5721 5731 5739 5749 5758 5768 5778 5786 5796 5804 5814 5821 5829 5835 5844 5849 5856 5860 5866 5870 5874 5875 5876 5877 5878 5881 5881 5880
5615 5619 5623 5628 5633 5638 5643 5649 5655 5659 5665 5671 5676 5684 5692 5700 5708 5717 5727 5736 5747 5757 5766 5776 5785 5794 5803 5810 5819 5828 5836 5843 5849 5853 5860 5862 5865 5867 5868 5870 5872 5874 5874 5873
5604 5608 5613 5618 5623 5628 5634 5640 5646 5651 5657 5663 5667 5674 5682 5691 5697 5705 5715 5726 5737 5746 5754 5765 5774 5783 5789 5799 5810 5821 5828 5835 5842 5847 5851 5854 5857 5860 5861 5863 5865 5866 5866 5866
5594 5598 5603 5609 5614 5619 5625 5630 5636 5642 5648 5655 5661 5666 5675 5681 5688 5696 5705 5715 5725 5735 5744 5754 5764 5770 5779 5788 5803 5810 5819 5827 5834 5840 5843 5845 5848 5850 5853 5856 5857 5857 5858 5857
5585 5590 5596 5601 5606 5611 5617 5621 5626 5632 5640 5646 5653 5658 5663 5673 5680 5688 5697 5705 5714 5725 5733 5742 5750 5758 5766 5785 5793 5802 5811 5820 5828 5832 5834 5837 5841 5843 5846 5847 5848 5849 5849 5848
5579 5585 5590 5595 5599 5604 5609 5612 5617 5623 5628 5637 5645 5649 5655 5665 5672 5680 5689 5697 5705 5712 5723 5728 5737 5748 5763 5773 5784 5793 5801 5808 5815 5820 5824 5827 5831 5835 5836 5838 5840 5840 5840 5839
5576 5581 5586 5591 5594 5598 5601 5605 5609 5613 5620 5626 5634 5639 5644 5655 5666 5674 5681 5687 5695 5701 5710 5719 5729 5742 5756 5765 5775 5783 5791 5799 5806 5811 5815 5818 5821 5824 5828 5830 5831 5831 5830 5830
5576 5580 5583 5587 5589 5593 5596 5599 5603 5608 5613 5618 5623 5629 5637 5647 5656 5665 5674 5680 5688 5694 5703 5710 5720 5734 5745 5755 5765 5773 5781 5788 5795 5800 5804 5808 5813 5817 5819 5820 5821 5821 5821 5821
5578 5581 5583 5586 5589 5591 5594 5598 5602 5606 5609 5612 5616 5622 5629 5639 5650 5658 5666 5672 5680 5688 5694 5703 5711 5723 5738 5747 5756 5764 5773 5779 5786 5791 5796 5800 5804 5806 5808 5810 5811 5812 5812 5811
5581 5583 5585 5586 5588 5591 5593 5595 5597 5602 5604 5608 5613 5619 5625 5633 5644 5653 5660 5667 5674 5680 5687 5695 5704 5715 5730 5739 5748 5758 5765 5772 5778 5783 5787 5791 5794 5797 5799 5800 5801 5802 5802 5802
5585 5585 5587 5588 5588 5588 5590 5593 5597 5600 5604 5608 5613 5619 5624 5631 5640 5649 5657 5661 5665 5674 5682 5689 5700 5712 5723 5732 5741 5750 5758 5765 5770 5775 5778 5782 5784 5787 5789 5791 5792 5793 5793 5793
5590 5590 5590 5589 5589 5590 5591 5595 5599 5602 5605 5609 5612 5617 5625 5630 5634 5644 5651 5657 5662 5671 5677 5687 5697 5708 5717 5727 5736 5744 5752 5757 5762 5767 5770 5774 5777 5779 5782 5782 5783 5785 5786 5786
5594 5593 5590 5591 5592 5593 5593 5595 5601 5604 5605 5611 5616 5621 5627 5633 5633 5639 5647 5652 5657 5668 5676 5685 5692 5702 5713 5721 5730 5737 5744 5750 5755 5760 5763 5767 5770 5772 5774 5776 5777 5777 5778 5778